Effective Sunday, March 17, 2024, the National Weather Service National Data Buoy Center will discontinue its Dial-A-Buoy Interactive Voice Response system. For more information, see Service Change Notice 24-06 (PDF).

Station CAPL1 - 8768094 - Calcasieu Pass, LA Image indicating link to RSS feed of recent meteorological observations for station CAPL1


Conditions at CAPL1 as of
(2:54 pm CST)
2054 GMT on 02/27/2024:
     

Click on the graph icon in the table below to see a time series plot of the last five days of that observation.

5-day plot - Wind Direction Wind Direction (WDIR):SSE ( 160 deg true )
5-day plot - Wind Speed Wind Speed (WSPD): 7.0 kts
5-day plot - Wind Gust Wind Gust (GST): 9.9 kts
5-day plot - Atmospheric Pressure Atmospheric Pressure (PRES):29.82 in
5-day plot - Air Temperature Air Temperature (ATMP): 69.1 °F
5-day plot - Water Temperature Water Temperature (WTMP): 64.0 °F
5-day plot - Wind Speed at 10 Meters Wind Speed at 10 meters (WSPD10M): 7.8 kts
5-day plot - Wind Speed at 20 Meters Wind Speed at 20 meters (WSPD20M): 7.8 kts
5-day plot -  Wind Speed, Wind Gust and Atmospheric Pressure Combined plot of Wind Speed, Gust, and Air Pressure
NOS Water Level Observation Network Water Level
Previous observations
TIME
(CST)
5-day plot - Wind Direction
WDIR
 
5-day plot - Wind Speed
WSPD
kts
5-day plot - Wind Gust
GST
kts
5-day plot - Wave Height
WVHT
ft
5-day plot - Dominant Wave Period
DPD
sec
5-day plot - Average Wave Period
APD
sec
5-day plot - Mean Wave Direction
MWD
 
5-day plot - Atmospheric Pressure
PRES
in
5-day plot - Pressure Tendency
PTDY
in
5-day plot - Air Temperature
ATMP
°F
5-day plot - Water Temperature
WTMP
°F
5-day plot - Dew Point
DEWP
°F
5-day plot - Salinity
SAL
psu
5-day plot - Visibility
VIS
nmi
5-day plot - Tide (above MLLW)
TIDE
ft
2024-02-27 02:48 pmSSE 8.0 12.0----29.82- 69.3 64.0----
2024-02-27 02:42 pmSSE 9.9 13.0----29.83- 69.1 63.9----
2024-02-27 02:36 pmSSE 8.9 11.1----29.83- 69.3 63.7----
2024-02-27 02:30 pmSSE 8.9 11.1----29.83- 68.7 63.7----
2024-02-27 02:24 pmSSE 9.9 12.0----29.83- 68.7 63.7----
2024-02-27 02:18 pmSSE 9.9 12.0----29.83- 69.1 63.5----
2024-02-27 02:12 pmSSE 8.9 12.0----29.83- 69.1 63.5----
2024-02-27 02:06 pmSSE 8.9 12.0----29.83- 68.9 63.5----
2024-02-27 02:00 pmSSE 9.9 12.0----29.83-0.08 68.7 63.5----
2024-02-27 01:54 pmSSE 11.1 14.0----29.84- 68.7 63.5----
2024-02-27 01:48 pmSSE 9.9 13.0----29.84- 69.1 63.5----
2024-02-27 01:42 pmSSE 12.0 13.0----29.84- 68.7 63.3----
2024-02-27 01:36 pmSSE 9.9 13.0----29.85- 69.1 63.3----
2024-02-27 01:30 pmSSE 9.9 13.0----29.85- 68.7 63.5----
2024-02-27 01:24 pmSSE 11.1 13.0----29.85- 68.4 63.5----
2024-02-27 01:18 pmSSE 9.9 12.0----29.85- 68.4 63.3----
2024-02-27 01:12 pmSSE 9.9 12.0----29.85- 68.9 63.5----
2024-02-27 01:06 pmSSE 8.9 12.0----29.86- 69.3 63.9----
2024-02-27 01:00 pmSSE 9.9 12.0----29.87-0.05 68.4 64.0----
2024-02-27 12:54 pmSSE 8.0 9.9----29.88- 68.7 63.9----
2024-02-27 12:48 pmSSE 8.9 11.1----29.88- 68.5 63.7----
2024-02-27 12:42 pmSSE 8.9 12.0----29.88- 68.5 63.9----
2024-02-27 12:36 pmSSE 8.9 11.1----29.88- 68.9 63.9----
2024-02-27 12:30 pmSSE 8.9 11.1----29.88- 68.9 63.9----
2024-02-27 12:24 pmSSE 8.0 11.1----29.89- 68.7 63.5----
2024-02-27 12:18 pmSSE 8.0 11.1----29.89- 69.1 63.5----
2024-02-27 12:12 pmSSE 8.9 11.1----29.89- 68.7 63.5----
2024-02-27 12:06 pmSSE 8.9 12.0----29.89- 68.5 63.3----
2024-02-27 12:00 pmSSE 8.9 11.1----29.90+0.00 68.7 63.5----
2024-02-27 11:54 amSSE 8.9 13.0----29.90- 68.7 63.5----
2024-02-27 11:48 amSSE 9.9 12.0----29.90- 68.5 63.5----
2024-02-27 11:42 amSSE 9.9 12.0----29.90- 68.5 63.5----
2024-02-27 11:36 amSSE 8.9 11.1----29.90- 68.4 63.5----
2024-02-27 11:30 amSSE 8.0 9.9----29.90- 68.2 63.5----
2024-02-27 11:24 amSSE 8.0 8.9----29.91- 68.4 63.3----
2024-02-27 11:18 amSSE 8.0 9.9----29.91- 67.8 63.3----
2024-02-27 11:12 amSSE 7.0 11.1----29.91- 68.2 63.3----
2024-02-27 11:06 amSSE 8.0 11.1----29.91- 68.0 63.5----
2024-02-27 11:00 am S 8.0 11.1----29.91+0.03 68.0 63.5----
2024-02-27 10:54 am S 8.0 11.1----29.91- 68.4 63.3----
2024-02-27 10:48 am S 8.9 12.0----29.91- 67.8 63.3----
2024-02-27 10:42 am S 9.9 12.0----29.91- 67.8 63.5----
2024-02-27 10:36 am S 8.9 12.0----29.91- 67.8 63.7----
2024-02-27 10:30 am S 9.9 13.0----29.91- 67.8 63.7----
2024-02-27 10:24 am S 9.9 12.0----29.91- 67.6 63.5----
2024-02-27 10:18 am S 9.9 12.0----29.91- 67.6 63.5----
2024-02-27 10:12 am S 8.0 11.1----29.92- 67.8 63.5----
2024-02-27 10:06 am S 8.9 11.1----29.92- 67.8 63.3----
2024-02-27 10:00 am S 8.0 11.1----29.92+0.05 67.8 63.3----
2024-02-27 09:54 am S 8.0 9.9----29.92- 67.6 63.3----
2024-02-27 09:48 am S 7.0 9.9----29.92- 68.0 63.1----
2024-02-27 09:42 am S 7.0 8.9----29.91- 68.0 63.1----
2024-02-27 09:36 am S 8.0 11.1----29.91- 67.8 63.1----
2024-02-27 09:30 am S 8.0 11.1----29.91- 67.6 63.0----
2024-02-27 09:24 am S 9.9 11.1----29.91- 67.3 62.8----
2024-02-27 09:18 am S 9.9 12.0----29.91- 67.5 62.8----
2024-02-27 09:12 am S 8.9 11.1----29.90- 67.3 62.8----
2024-02-27 09:06 am S 8.9 12.0----29.90- 67.3 62.8----
2024-02-27 09:00 am S 8.9 12.0----29.90+0.03- 62.8----
2024-02-27 08:54 am S 8.0 11.1----29.90-- 62.8----
2024-02-27 08:48 am S 8.9 11.1----29.90- 67.1 63.0----
2024-02-27 08:42 am S 8.9 11.1----29.89- 67.1 63.0----
2024-02-27 08:36 am S 8.0 11.1----29.89- 67.1 63.0----
2024-02-27 08:30 am S 8.9 11.1----29.89- 66.9 63.0----
2024-02-27 08:24 am S 8.9 11.1----29.89- 66.7 63.0----
2024-02-27 08:18 am S 8.9 11.1----29.89- 66.7 63.0----
2024-02-27 08:12 am S 8.9 12.0----29.89- 66.6 63.0----
2024-02-27 08:06 am S 8.9 12.0----29.88- 66.4 63.0----
2024-02-27 08:00 am S 9.9 13.0----29.88+0.00 66.4 63.0----
2024-02-27 07:54 am S 11.1 14.0----29.87- 66.4 63.0----
2024-02-27 07:48 am S 12.0 14.0----29.86- 66.4 63.0----
2024-02-27 07:42 am S 9.9 13.0----29.87- 66.0 63.0----
2024-02-27 07:36 am S 11.1 12.0----29.87- 66.0 62.8----
2024-02-27 07:30 am S 8.9 11.1----29.87- 65.8 62.8----
2024-02-27 07:24 am S 8.0 11.1----29.87- 65.8 62.8----
2024-02-27 07:18 am S 8.9 11.1----29.87- 65.8 62.8----
2024-02-27 07:12 am S 9.9 12.0----29.87- 65.8 62.8----
2024-02-27 07:06 am S 9.9 11.1----29.86- 65.7 62.8----
2024-02-27 07:00 am S 8.9 12.0----29.87-0.02 65.8 62.8----
2024-02-27 06:54 am S 9.9 12.0----29.87- 65.8 62.8----
2024-02-27 06:48 am S 9.9 12.0----29.87- 65.8 62.8----
2024-02-27 06:42 am S 9.9 14.0----29.87- 65.8 62.8----
2024-02-27 06:36 am S 12.0 15.0----29.86- 66.0 62.8----
2024-02-27 06:30 am S 12.0 14.0----29.86- 65.8 62.8----
2024-02-27 06:24 am S 12.0 14.0----29.87- 65.7 62.6----
2024-02-27 06:18 am S 11.1 12.0----29.87- 65.7 62.6----
2024-02-27 06:12 am S 9.9 12.0----29.88- 65.8 62.6----
2024-02-27 06:06 am S 9.9 12.0----29.88- 65.7 62.6----
2024-02-27 06:00 am S 9.9 12.0----29.87-0.02 65.7 62.6----
2024-02-27 05:54 am S 11.1 13.0----29.87- 65.5 62.4----
2024-02-27 05:48 am S 12.0 14.0----29.87- 65.7 62.4----
2024-02-27 05:42 am S 12.0 14.0----29.87- 65.5 62.4----
2024-02-27 05:36 am S 11.1 12.0----29.87- 65.5 62.4----
2024-02-27 05:30 am S 11.1 13.0----29.88- 65.7 62.4----
2024-02-27 05:24 am S 8.0 11.1----29.88- 65.5 62.2----
2024-02-27 05:18 am S 9.9 12.0----29.88- 65.5 62.2----
2024-02-27 05:12 am S 9.9 12.0----29.88- 65.7 62.4----
2024-02-27 05:06 am S 9.9 12.0----29.88- 65.8 62.4----
2024-02-27 05:00 am S 9.9 12.0----29.88-0.02- 62.4----
2024-02-27 04:54 am S 9.9 13.0----29.88-- 62.4----
2024-02-27 04:48 am S 11.1 12.0----29.88- 65.7 62.4----
2024-02-27 04:42 am S 9.9 12.0----29.88- 65.5 62.4----
2024-02-27 04:36 am S 9.9 12.0----29.88- 65.7 62.6----
2024-02-27 04:30 am S 9.9 11.1----29.88- 65.7 62.4----
2024-02-27 04:24 amSSW 9.9 11.1----29.88- 65.7 62.4----
2024-02-27 04:18 amSSW 8.0 8.9----29.89- 65.5 62.6----
2024-02-27 04:12 amSSW 8.0 8.0----29.89- 65.5 62.6----
2024-02-27 04:06 amSSW 8.0 8.0----29.89- 65.5 62.6----
2024-02-27 04:00 amSSW 8.0 8.9----29.89-0.01 65.5 62.6----
2024-02-27 03:54 amSSW 8.0 9.9----29.88- 65.3 62.6----
2024-02-27 03:48 amSSW 8.9 9.9----29.88- 65.3 62.6----
2024-02-27 03:42 amSSW 8.9 9.9----29.88- 65.3 62.8----
2024-02-27 03:36 amSSW 9.9 11.1----29.88- 65.5 62.8----
2024-02-27 03:30 amSSW 9.9 12.0----29.88- 65.7 63.0----
2024-02-27 03:24 amSSW 11.1 12.0----29.89- 65.7 62.8----
2024-02-27 03:18 amSSW 9.9 11.1----29.89- 65.7 62.8----
2024-02-27 03:12 amSSW 9.9 11.1----29.89- 65.7 62.8----
2024-02-27 03:06 amSSW 11.1 13.0----29.89- 65.7 62.8----
2024-02-27 03:00 amSSW 12.0 13.0----29.89-0.03 65.8 62.8----
2024-02-27 02:54 amSSW 11.1 13.0----29.89- 65.7 62.8----
2024-02-27 02:48 am S 8.9 11.1----29.89- 65.5 62.6----
2024-02-27 02:42 am S 8.9 12.0----29.90- 65.5 62.6----
2024-02-27 02:36 am S 8.9 11.1----29.89- 65.5 62.6----
2024-02-27 02:30 am S 8.0 9.9----29.90- 65.5 62.6----
2024-02-27 02:24 amSSW 8.0 8.9----29.91- 65.3 62.6----
2024-02-27 02:18 amSSW 7.0 8.9----29.91- 65.3 62.6----
2024-02-27 02:12 am S 8.0 9.9----29.91- 65.5 62.6----
2024-02-27 02:06 am S 8.9 11.1----29.91- 65.5 62.6----
2024-02-27 02:00 am S 8.9 11.1----29.91-0.03 65.5 62.6----
2024-02-27 01:54 am S 8.9 12.0----29.90- 65.5 62.6----
2024-02-27 01:48 am S 9.9 12.0----29.91- 65.5 62.6----
2024-02-27 01:42 am S 11.1 12.0----29.91- 65.5 62.6----
2024-02-27 01:36 am S 11.1 12.0----29.91- 65.7 62.6----
2024-02-27 01:30 amSSW 11.1 14.0----29.91- 65.5 62.6----
2024-02-27 01:24 amSSW 12.0 15.0----29.91- 65.7 62.6----
2024-02-27 01:18 amSSW 13.0 15.0----29.91- 65.7 62.6----
2024-02-27 01:12 am S 12.0 15.0----29.90- 65.7 62.6----
2024-02-27 01:06 amSSW 13.0 15.0----29.90- 65.7 62.8----
2024-02-27 01:00 amSSW 12.0 14.0----29.91-0.04 65.7 62.8----
2024-02-27 12:54 am S 11.1 13.0----29.91- 65.7 62.8----
2024-02-27 12:48 am S 11.1 14.0----29.91- 65.5 62.8----
2024-02-27 12:42 am S 12.0 15.0----29.91- 65.7 62.8----
2024-02-27 12:36 am S 13.0 15.9----29.91- 65.8 62.8----
2024-02-27 12:30 am S 12.0 15.0----29.91- 65.8 62.8----
2024-02-27 12:24 am S 11.1 14.0----29.91- 65.7 62.8----
2024-02-27 12:18 am S 12.0 14.0----29.91- 65.7 62.8----
2024-02-27 12:12 am S 11.1 14.0----29.91- 65.5 62.8----
2024-02-27 12:06 am S 11.1 13.0----29.92- 65.5 63.0----
2024-02-27 12:00 am S 11.1 13.0----29.92-0.03 65.5 63.0----
2024-02-26 11:54 pm S 9.9 12.0----29.93- 65.5 63.0----
2024-02-26 11:48 pm S 9.9 12.0----29.92- 65.3 63.0----
2024-02-26 11:42 pm S 11.1 13.0----29.93- 65.5 63.0----
2024-02-26 11:36 pm S 11.1 13.0----29.93- 65.7 63.0----
2024-02-26 11:30 pm S 11.1 13.0----29.93- 65.7 63.0----
2024-02-26 11:24 pm S 11.1 13.0----29.93- 65.7 63.0----
2024-02-26 11:18 pm S 11.1 13.0----29.93- 65.7 63.1----
2024-02-26 11:12 pm S 9.9 13.0----29.93- 65.7 63.1----
2024-02-26 11:06 pm S 9.9 13.0----29.93- 65.5 63.1----
2024-02-26 11:00 pm S 11.1 13.0----29.93+0.00 65.7 62.8----
2024-02-26 10:54 pm S 9.9 12.0----29.94- 65.7 62.4----
2024-02-26 10:48 pm S 9.9 12.0----29.94- 65.7 62.6----
2024-02-26 10:42 pm S 8.9 12.0----29.94- 65.5 62.8----
2024-02-26 10:36 pm S 8.9 12.0----29.95- 65.7 63.1----
2024-02-26 10:30 pm S 9.9 12.0----29.95- 65.7 63.1----
2024-02-26 10:24 pm S 9.9 12.0----29.94- 65.7 63.1----
2024-02-26 10:18 pm S 9.9 12.0----29.94- 65.7 63.0----
2024-02-26 10:12 pm S 11.1 13.0----29.94- 65.7 63.0----
2024-02-26 10:06 pm S 11.1 12.0----29.94- 65.7 63.0----
2024-02-26 10:00 pm S 9.9 12.0----29.94+0.00 65.8 62.8----
2024-02-26 09:54 pm S 9.9 12.0----29.94- 65.8 62.6----
2024-02-26 09:48 pm S 9.9 12.0----29.94- 65.8 62.4----
2024-02-26 09:42 pm S 9.9 13.0----29.95- 65.8 62.4----
2024-02-26 09:36 pm S 11.1 13.0----29.95- 66.0 62.4----
2024-02-26 09:30 pm S 12.0 14.0----29.94- 66.2 62.4----
2024-02-26 09:24 pm S 12.0 14.0----29.94- 66.4 62.4----
2024-02-26 09:18 pm S 12.0 14.0----29.94- 66.4 62.4----
2024-02-26 09:12 pm S 12.0 14.0----29.94- 66.4 62.4----
2024-02-26 09:06 pm S 11.1 14.0----29.94- 66.6 62.4----
2024-02-26 09:00 pm S 11.1 15.0----29.95+0.00 66.6 62.6----
2024-02-26 08:54 pm S 12.0 15.0----29.95- 66.6 62.4----
2024-02-26 08:48 pm S 12.0 14.0----29.94- 66.4 62.4----
2024-02-26 08:42 pm S 12.0 15.0----29.94- 66.4 62.6----
2024-02-26 08:36 pm S 12.0 15.0----29.94- 66.4 62.6----
2024-02-26 08:30 pm S 12.0 15.9----29.94- 66.4 62.6----
2024-02-26 08:24 pm S 13.0 15.0----29.94- 66.4 62.6----
2024-02-26 08:18 pm S 12.0 15.0----29.94- 66.4 62.6----
2024-02-26 08:12 pm S 13.0 15.0----29.94- 66.2 62.4----
2024-02-26 08:06 pm S 12.0 15.0----29.94- 66.0 62.4----
2024-02-26 08:00 pm S 13.0 15.0----29.94-0.01- 62.4----
2024-02-26 07:54 pm S 13.0 15.9----29.94-- 62.6----
2024-02-26 07:48 pm S 13.0 15.9----29.94-- 62.4----
2024-02-26 07:42 pm S 14.0 15.0----29.94-- 62.6----
2024-02-26 07:36 pm S 12.0 15.0----29.94-- 62.6----
2024-02-26 07:30 pm S 13.0 15.9----29.94- 66.2 62.6----
2024-02-26 07:24 pm S 12.0 14.0----29.94- 66.2 62.6----
2024-02-26 07:18 pm S 12.0 14.0----29.95- 66.0 62.2----
2024-02-26 07:12 pm S 12.0 14.0----29.95- 65.8 61.9----
2024-02-26 07:06 pm S 12.0 13.0----29.94- 66.0 61.9----
2024-02-26 07:00 pm S 12.0 14.0----29.95+0.00 66.0-----
2024-02-26 06:54 pm S 12.0 14.0----29.95- 66.2-----
2024-02-26 06:48 pm S 11.1 15.0----29.95- 66.2 62.1----
2024-02-26 06:42 pm S 12.0 14.0----29.94- 66.2 62.1----
2024-02-26 06:36 pm S 13.0 14.0----29.94- 66.4 62.1----
2024-02-26 06:30 pm S 12.0 15.0----29.95-------
2024-02-26 06:24 pm S 13.0 15.0----29.95-------
2024-02-26 06:18 pm S 9.9 12.0----29.95- 66.2 62.2----
2024-02-26 06:12 pm S 9.9 13.0----29.95- 66.2 62.2----
2024-02-26 06:06 pm S 11.1 13.0----29.94- 66.4 62.4----
2024-02-26 06:00 pm S 9.9 14.0----29.94-0.02 66.4 62.2----
2024-02-26 05:54 pm S 11.1 14.0----29.95- 66.4 62.2----
2024-02-26 05:48 pm S 8.9 11.1----29.95- 66.4 62.2----
2024-02-26 05:42 pm S 8.9 12.0----29.95- 66.2 62.2----
2024-02-26 05:36 pm S 9.9 13.0----29.95- 66.4 62.4----
2024-02-26 05:30 pm S 8.9 12.0----29.95-------
2024-02-26 05:24 pm S 9.9 12.0----29.95-------
2024-02-26 05:18 pm S 9.9 12.0----29.95- 66.2 62.6----
2024-02-26 05:12 pm S 9.9 12.0----29.95- 66.2 62.6----
2024-02-26 05:06 pm S 9.9 12.0----29.95- 66.2 62.6----
2024-02-26 05:00 pm S 9.9 11.1----29.95-0.06 66.2 62.8----
2024-02-26 04:54 pm S 9.9 12.0----29.94- 66.2 63.0----
2024-02-26 04:48 pm S 8.9 12.0----29.95- 66.2 63.0----
2024-02-26 04:42 pm S 9.9 12.0----29.95- 66.2 63.0----
2024-02-26 04:36 pm S 11.1 13.0----29.94- 66.2 63.0----
2024-02-26 04:30 pm S 11.1 13.0----29.94- 66.2 63.0----
2024-02-26 04:24 pm S 9.9 12.0----29.94- 66.2 63.0----
2024-02-26 04:18 pm S 9.9 12.0----29.95- 66.2 63.0----
2024-02-26 04:12 pm S 11.1 12.0----29.95- 66.2 63.0----
2024-02-26 04:06 pm S 11.1 12.0----29.95- 66.2 62.8----
2024-02-26 04:00 pm S 11.1 12.0----29.95-0.07 66.2 62.8----
2024-02-26 03:54 pm S 9.9 12.0----29.95- 66.2 62.8----
2024-02-26 03:48 pm S 9.9 12.0----29.96- 66.2 63.0----
2024-02-26 03:42 pm S 8.9 12.0----29.96- 66.2 62.8----
2024-02-26 03:36 pm S 9.9 12.0----29.96- 66.4 62.8----
2024-02-26 03:30 pm S 8.9 11.1----29.96- 66.6 62.8----
2024-02-26 03:24 pm S 9.9 12.0----29.96- 66.4 62.8----
2024-02-26 03:18 pm S 8.9 12.0----29.96- 66.2 62.8----
2024-02-26 03:12 pm S 8.9 12.0----29.97- 66.2 62.8----
2024-02-26 03:06 pm S 8.9 12.0----29.97- 66.2 62.8----
2024-02-26 03:00 pm S 8.9 12.0----29.97-0.09 66.2 63.0----
2024-02-26 02:54 pm S 8.9 13.0----29.97- 66.2 63.0----